GW2349 Weather Reports


Display with metric or nautical units.
time (UTC)temp
F
wind
direction
speed
MPH
gust
MPH
rain 1hr
in
rain 24hr
in
rain mn
in
humidity
%
barometer
mb
20260903125042 60 298 4.0 9.0 0.00 0.00 0.00 74 1002.4
20260903124610 60 342 3.0 9.0 0.00 0.00 0.00 73 1002.4
20260903124042 60 131 3.0 9.0 0.00 0.00 0.00 73 1002.4
20260903123544 60 352 2.0 8.0 0.00 0.00 0.00 73 1002.4
20260903123057 60 345 2.0 8.0 0.00 0.00 0.00 72 1002.4
20260903122542 60 346 2.0 9.0 0.00 0.00 0.00 72 1002.5
20260903122042 60 236 2.0 9.0 0.00 0.00 0.00 73 1002.4
20260903121557 61 286 2.0 4.0 0.00 0.00 0.00 72 1002.4
20260903121041 61 239 1.0 4.0 0.00 0.00 0.00 72 1002.3
20260903120543 61 211 1.0 4.0 0.00 0.00 0.00 72 1002.3
20260903120133 61 23 1.0 4.0 0.00 0.00 0.00 73 1002.3
20260903115542 61 0 0.0 5.0 0.00 0.00 0.00 73 1002.3
20260903115043 61 0 2.0 5.0 0.00 0.00 0.00 73 1002.3
20260903114608 61 315 0.0 4.0 0.00 0.00 0.00 74 1002.2
20260903114042 60 345 0.0 2.0 0.00 0.00 0.00 74 1002.3
20260903113542 61 0 0.0 0.0 0.00 0.00 0.00 73 1002.3
20260903113058 61 0 0.0 0.0 0.00 0.00 0.00 73 1002.3
20260903112542 61 0 0.0 1.0 0.00 0.00 0.00 73 1002.3
20260903112043 61 0 0.0 2.0 0.00 0.00 0.00 73 1002.3
20260903111602 61 0 0.0 2.0 0.00 0.00 0.00 73 1002.3
20260903111044 61 0 0.0 3.0 0.00 0.00 0.00 72 1002.4
20260903110542 61 0 1.0 3.0 0.00 0.00 0.00 72 1002.3
20260903110105 62 96 1.0 2.0 0.00 0.00 0.00 72 1002.4
20260903105542 62 0 0.0 2.0 0.00 0.00 0.00 72 1002.3
20260903105043 62 0 0.0 3.0 0.00 0.00 0.00 73 1002.3
20260903104556 62 96 0.0 3.0 0.00 0.00 0.00 72 1002.3
20260903104046 62 108 0.0 3.0 0.00 0.00 0.00 72 1002.2
20260903103543 63 108 1.0 4.0 0.00 0.00 0.00 71 1002.3
20260903103104 63 107 1.0 4.0 0.00 0.00 0.00 72 1002.2
20260903102543 63 118 0.0 4.0 0.00 0.00 0.00 72 1002.2
20260903102044 63 92 0.0 4.0 0.00 0.00 0.00 73 1002.1
20260903101552 63 0 0.0 4.0 0.00 0.00 0.00 73 1002.0
20260903101041 63 0 1.0 4.0 0.00 0.00 0.00 74 1002.0
20260903100542 63 9 1.0 4.0 0.00 0.00 0.00 75 1002.0
20260903100105 63 0 0.0 3.0 0.00 0.00 0.00 75 1002.0
20260903095542 62 0 1.0 3.0 0.00 0.00 0.00 76 1001.9
20260903095042 61 113 0.0 0.0 0.00 0.00 0.00 78 1001.8
20260903094558 60 0 0.0 0.0 0.00 0.00 0.00 79 1001.7
20260903094043 60 0 0.0 0.0 0.00 0.00 0.00 79 1001.7
20260903093543 59 0 0.0 3.0 0.00 0.00 0.00 79 1001.7
20260903093107 59 0 0.0 4.0 0.00 0.00 0.00 80 1001.8
20260903092544 58 124 1.0 4.0 0.00 0.00 0.00 80 1001.7
20260903092043 57 126 0.0 1.0 0.00 0.00 0.00 81 1001.8
20260903091601 57 0 0.0 0.0 0.00 0.00 0.00 81 1001.8
20260903091044 56 0 0.0 0.0 0.00 0.00 0.00 81 1001.8
20260903090541 56 0 0.0 0.0 0.00 0.00 0.00 82 1001.9
20260903085542 56 0 0.0 0.0 0.00 0.00 0.00 84 1001.9
20260903085042 55 0 0.0 0.0 0.00 0.00 0.00 84 1002.0
20260903084558 55 0 0.0 0.0 0.00 0.00 0.00 85 1001.9
20260903084042 54 0 0.0 0.0 0.00 0.00 0.00 86 1001.9
20260903083545 54 0 0.0 0.0 0.00 0.00 0.00 86 1002.1
20260903083056 54 0 0.0 0.0 0.00 0.00 0.00 87 1001.9
20260903082541 53 0 0.0 0.0 0.00 0.00 0.00 87 1002.1
20260903082041 53 0 0.0 0.0 0.00 0.00 0.00 87 1002.1
20260903081553 53 0 0.0 0.0 0.00 0.00 0.00 87 1002.2
20260903081042 53 0 0.0 0.0 0.00 0.00 0.00 87 1002.2
20260903080541 53 0 0.0 0.0 0.00 0.00 0.00 87 1002.1
20260903080103 52 0 0.0 0.0 0.00 0.00 0.00 88 1002.1
20260903075542 52 0 0.0 0.0 0.00 0.00 0.00 88 1002.1
20260903075042 52 0 0.0 0.0 0.00 0.00 0.00 89 1002.1
20260903074627 52 0 0.0 0.0 0.00 0.00 0.00 89 1002.0
20260903074042 52 0 0.0 0.0 0.00 0.00 0.00 89 1002.1
20260903073542 52 0 0.0 0.0 0.00 0.00 0.00 89 1002.0
20260903073059 51 0 0.0 0.0 0.00 0.00 0.00 89 1002.1
20260903072542 51 0 0.0 0.0 0.00 0.00 0.00 90 1002.0
20260903072042 51 0 0.0 0.0 0.00 0.00 0.00 90 1002.0
20260903071607 51 0 0.0 0.0 0.00 0.00 0.00 90 1001.9
20260903071042 51 0 0.0 0.0 0.00 0.00 0.00 90 1001.9
20260903070543 51 0 0.0 0.0 0.00 0.00 0.00 90 1001.9
20260903070115 50 0 0.0 0.0 0.00 0.00 0.00 90 1001.9
20260903065545 50 0 0.0 0.0 0.00 0.00 0.00 90 1001.9
20260903065043 50 0 0.0 0.0 0.00 0.00 0.00 90 1001.9
20260903064555 50 0 0.0 0.0 0.00 0.00 0.00 89 1001.9
20260903064044 50 0 0.0 0.0 0.00 0.00 0.00 89 1001.8
20260903063544 50 0 0.0 0.0 0.00 0.00 0.00 89 1001.8
20260903063105 50 0 0.0 0.0 0.00 0.00 0.00 89 1001.8
20260903062544 49 0 0.0 0.0 0.00 0.00 0.00 89 1001.8
20260903062044 49 0 0.0 0.0 0.00 0.00 0.00 89 1001.8
20260903061611 49 0 0.0 0.0 0.00 0.00 0.00 89 1001.8
20260903061043 49 0 0.0 0.0 0.00 0.00 0.00 89 1001.8
20260903060543 49 0 0.0 0.0 0.00 0.00 0.00 89 1001.6
20260903060100 48 0 0.0 0.0 0.00 0.00 0.00 89 1001.7
20260903055544 48 0 0.0 0.0 0.00 0.00 0.00 89 1001.6
20260903055043 48 0 0.0 0.0 0.00 0.00 0.00 89 1001.6
20260903054603 48 0 0.0 0.0 0.00 0.00 0.00 89 1001.6
20260903054044 48 0 0.0 0.0 0.00 0.00 0.00 89 1001.7
20260903053542 47 0 0.0 0.0 0.00 0.00 0.00 89 1001.6
20260903053101 47 0 0.0 0.0 0.00 0.00 0.00 89 1001.6
20260903052541 47 0 0.0 0.0 0.00 0.00 0.00 89 1001.7
20260903052045 47 0 0.0 0.0 0.00 0.00 0.00 88 1001.6
20260903051603 47 0 0.0 0.0 0.00 0.00 0.00 88 1001.6
20260903051042 47 0 0.0 0.0 0.00 0.00 0.00 88 1001.6
20260903050542 46 0 0.0 0.0 0.00 0.00 0.00 87 1001.5
20260903045541 46 0 0.0 0.0 0.00 0.00 0.00 87 1001.5
20260903045042 46 0 0.0 0.0 0.00 0.00 0.00 87 1001.5
20260903044558 46 0 0.0 0.0 0.00 0.00 0.00 87 1001.6
20260903044042 46 0 0.0 0.0 0.00 0.00 0.00 87 1001.5
20260903043543 46 0 0.0 0.0 0.00 0.00 0.00 87 1001.5
20260903043103 46 0 0.0 0.0 0.00 0.00 0.00 87 1001.5
20260903042542 46 0 0.0 0.0 0.00 0.00 0.00 87 1001.5
20260903042043 46 0 0.0 0.0 0.00 0.00 0.00 87 1001.5
20260903041611 46 0 0.0 0.0 0.00 0.00 0.00 86 1001.6
20260903041042 46 0 0.0 0.0 0.00 0.00 0.00 86 1001.6
20260903040546 46 0 0.0 0.0 0.00 0.00 0.00 87 1001.5
20260903040109 46 0 0.0 0.0 0.00 0.00 0.00 87 1001.5
20260903035544 46 0 0.0 0.0 0.00 0.00 0.00 87 1001.6
20260903035042 46 0 0.0 0.0 0.00 0.00 0.00 87 1001.5
20260903034600 46 0 0.0 0.0 0.00 0.00 0.00 87 1001.5
20260903034043 46 0 0.0 0.0 0.00 0.00 0.00 87 1001.5
20260903033542 46 0 0.0 0.0 0.00 0.00 0.00 87 1001.4
20260903033101 46 0 0.0 0.0 0.00 0.00 0.00 87 1001.3
20260903032543 46 0 0.0 0.0 0.00 0.00 0.00 87 1001.4
20260903032042 46 0 0.0 0.0 0.00 0.00 0.00 87 1001.4
20260903031611 46 0 0.0 0.0 0.00 0.00 0.00 87 1001.3
20260903031042 46 0 0.0 0.0 0.00 0.00 0.00 86 1001.4
20260903030542 46 0 0.0 0.0 0.00 0.00 0.00 86 1001.4
20260903025543 45 0 0.0 0.0 0.00 0.00 0.00 85 1001.6
20260903025041 45 0 0.0 0.0 0.00 0.00 0.00 85 1001.6
20260903024604 45 0 0.0 0.0 0.00 0.00 0.00 85 1001.5
20260903024419 45 0 0.0 0.0 0.00 0.00 0.00 85 1001.5
20260903020545 46 0 0.0 0.0 0.00 0.00 0.00 85 1001.7
20260903020058 46 0 0.0 0.0 0.00 0.00 0.00 85 1001.7
20260903015541 46 0 0.0 0.0 0.00 0.00 0.00 85 1001.6
20260903015040 46 0 0.0 0.0 0.00 0.00 0.00 85 1001.7
20260903014613 45 0 0.0 0.0 0.00 0.00 0.00 85 1001.6
20260903014044 46 0 0.0 0.0 0.00 0.00 0.00 85 1001.6
20260903013544 46 0 0.0 0.0 0.00 0.00 0.00 85 1001.6
20260903013102 46 0 0.0 0.0 0.00 0.00 0.00 85 1001.6
20260903012543 46 0 0.0 0.0 0.00 0.00 0.00 85 1001.6
20260903012043 46 0 0.0 0.0 0.00 0.00 0.00 85 1001.6
20260903011617 46 0 0.0 0.0 0.00 0.00 0.00 85 1001.7
20260903011043 46 0 0.0 0.0 0.00 0.00 0.00 85 1001.7
20260903010544 46 0 0.0 0.0 0.00 0.00 0.00 85 1001.7
20260903010108 46 0 0.0 2.0 0.00 0.00 0.00 84 1001.7
20260903005543 46 0 0.0 2.0 0.00 0.00 0.00 84 1001.8
20260903005043 46 0 0.0 0.0 0.00 0.00 0.00 84 1001.8
20260903004608 46 0 0.0 3.0 0.00 0.00 0.00 85 1001.8
20260903004043 46 0 0.0 3.0 0.00 0.00 0.00 85 1001.8
20260903003544 46 346 2.0 3.0 0.00 0.00 0.00 84 1001.8
20260903003125 46 0 0.0 0.0 0.00 0.00 0.00 84 1001.8
20260903002543 46 0 0.0 0.0 0.00 0.00 0.00 84 1001.9
20260903002047 46 0 0.0 0.0 0.00 0.00 0.00 84 1001.9
20260903001603 46 0 0.0 0.0 0.00 0.00 0.00 84 1001.9
20260903001045 46 0 0.0 0.0 0.00 0.00 0.00 84 1001.9
20260903000544 46 0 0.0 0.0 0.00 0.00 0.00 84 1001.9
20260902235544 46 0 0.0 0.0 0.00 0.00 0.00 83 1002.0
20260902235046 45 0 0.0 0.0 0.00 0.00 0.00 83 1002.0
20260902234554 46 0 0.0 0.0 0.00 0.00 0.00 83 1002.1
20260902234043 46 0 0.0 0.0 0.00 0.00 0.00 83 1001.9
20260902233548 46 0 0.0 0.0 0.00 0.00 0.00 83 1001.9
20260902233057 46 0 0.0 0.0 0.00 0.00 0.00 83 1002.0
20260902232543 46 0 0.0 0.0 0.00 0.00 0.00 83 1002.0
20260902232046 46 0 0.0 0.0 0.00 0.00 0.00 82 1002.0
20260902231556 46 0 0.0 0.0 0.00 0.00 0.00 82 1002.0
20260902231042 46 0 0.0 0.0 0.00 0.00 0.00 82 1002.1
20260902230542 46 0 0.0 0.0 0.00 0.00 0.00 82 1002.1
20260902230059 46 0 0.0 0.0 0.00 0.00 0.00 82 1002.1
20260902225544 46 0 0.0 0.0 0.00 0.00 0.00 82 1002.2
20260902225047 46 0 0.0 0.0 0.00 0.00 0.00 82 1002.2
20260902224625 46 0 0.0 0.0 0.00 0.00 0.00 82 1002.2
20260902224043 46 0 0.0 0.0 0.00 0.00 0.00 82 1002.1
20260902223543 46 0 0.0 0.0 0.00 0.00 0.00 82 1002.2
20260902223100 46 0 0.0 0.0 0.00 0.00 0.00 82 1002.1
20260902222543 46 0 0.0 0.0 0.00 0.00 0.00 81 1002.0
20260902222044 47 0 0.0 0.0 0.00 0.00 0.00 81 1002.1
20260902221605 47 0 0.0 0.0 0.00 0.00 0.00 81 1002.1
20260902221043 47 0 0.0 0.0 0.00 0.00 0.00 81 1002.1
20260902220544 47 0 0.0 0.0 0.00 0.00 0.00 81 1002.1
20260902220101 47 0 0.0 0.0 0.00 0.00 0.00 82 1002.1
20260902215543 47 0 0.0 0.0 0.00 0.00 0.00 81 1002.1
20260902215044 47 0 0.0 0.0 0.00 0.00 0.00 81 1002.1
20260902214556 47 0 0.0 0.0 0.00 0.00 0.00 80 1002.1
20260902214047 47 0 0.0 0.0 0.00 0.00 0.00 80 1002.1
20260902213546 48 0 0.0 0.0 0.00 0.00 0.00 80 1002.0
20260902213106 48 0 0.0 0.0 0.00 0.00 0.00 80 1002.0
20260902212543 48 0 0.0 0.0 0.00 0.00 0.00 80 1002.1
20260902212043 48 0 0.0 0.0 0.00 0.00 0.00 80 1002.1
20260902211558 48 0 0.0 0.0 0.00 0.00 0.00 80 1002.1
20260902211043 48 0 0.0 0.0 0.00 0.00 0.00 80 1002.1
20260902210546 48 0 0.0 0.0 0.00 0.00 0.00 80 1002.2
20260902210058 48 0 0.0 0.0 0.00 0.00 0.00 80 1002.2
20260902205543 49 0 0.0 0.0 0.00 0.00 0.00 79 1002.2
20260902205044 49 0 0.0 0.0 0.00 0.00 0.00 79 1002.3
20260902204554 49 0 0.0 0.0 0.00 0.00 0.00 80 1002.3
20260902204045 49 0 0.0 0.0 0.00 0.00 0.00 79 1002.3
20260902203543 49 0 0.0 0.0 0.00 0.00 0.00 79 1002.3
20260902203115 50 0 0.0 0.0 0.00 0.00 0.00 79 1002.4
20260902202543 50 0 0.0 0.0 0.00 0.00 0.00 78 1002.4
20260902202043 50 0 0.0 0.0 0.00 0.00 0.00 78 1002.4
20260902201602 50 0 0.0 0.0 0.00 0.00 0.00 78 1002.5
20260902201043 50 0 0.0 0.0 0.00 0.00 0.00 79 1002.4
20260902200543 51 0 0.0 0.0 0.00 0.00 0.00 79 1002.4
20260902200108 51 0 0.0 0.0 0.00 0.00 0.00 78 1002.4
20260902195543 51 0 0.0 0.0 0.00 0.00 0.00 78 1002.5
20260902195044 51 0 0.0 0.0 0.00 0.00 0.00 78 1002.5
20260902194604 51 0 0.0 0.0 0.00 0.00 0.00 78 1002.4
20260902194043 52 0 0.0 0.0 0.00 0.00 0.00 78 1002.4
20260902193544 52 0 0.0 0.0 0.00 0.00 0.00 78 1002.4
20260902193100 52 0 0.0 0.0 0.00 0.00 0.00 78 1002.5
20260902192543 53 0 0.0 2.0 0.00 0.00 0.00 78 1002.4
20260902192043 53 0 0.0 3.0 0.00 0.00 0.00 78 1002.5
20260902191557 53 316 1.0 3.0 0.00 0.00 0.00 78 1002.4
20260902191042 53 0 0.0 0.0 0.00 0.00 0.00 78 1002.5
20260902190544 53 0 0.0 0.0 0.00 0.00 0.00 78 1002.5
20260902190114 54 0 0.0 0.0 0.00 0.00 0.00 77 1002.5
20260902185546 54 0 0.0 0.0 0.00 0.00 0.00 77 1002.6
20260902185043 54 0 0.0 0.0 0.00 0.00 0.00 77 1002.5
20260902184603 54 0 0.0 0.0 0.00 0.00 0.00 77 1002.5
20260902184043 55 0 0.0 2.0 0.00 0.00 0.00 77 1002.5
20260902183543 55 0 0.0 2.0 0.00 0.00 0.00 77 1002.6
20260902183103 55 0 0.0 2.0 0.00 0.00 0.00 77 1002.5
20260902182544 55 309 0.0 2.0 0.00 0.00 0.00 77 1002.6
20260902182047 55 0 0.0 3.0 0.00 0.00 0.00 77 1002.6
20260902181557 55 309 1.0 3.0 0.00 0.00 0.00 76 1002.6
20260902181042 56 309 1.0 3.0 0.00 0.00 0.00 76 1002.6
20260902180542 56 307 1.0 6.0 0.00 0.00 0.00 76 1002.6
20260902180105 56 307 0.0 6.0 0.00 0.00 0.00 76 1002.6
20260902175543 56 352 1.0 2.0 0.00 0.00 0.00 76 1002.7
20260902175044 56 0 0.0 2.0 0.00 0.00 0.00 76 1002.5
20260902174605 56 5 0.0 2.0 0.00 0.00 0.00 76 1002.5
20260902174044 56 0 0.0 5.0 0.00 0.00 0.00 75 1002.6
20260902173544 57 0 1.0 5.0 0.00 0.00 0.00 76 1002.6
20260902173107 57 289 2.0 5.0 0.00 0.00 0.00 75 1002.6
20260902172542 57 277 2.0 5.0 0.00 0.00 0.00 75 1002.6
20260902172047 57 314 2.0 5.0 0.00 0.00 0.00 75 1002.5
20260902171609 58 276 2.0 5.0 0.00 0.00 0.00 74 1002.5
20260902171044 58 303 2.0 8.0 0.00 0.00 0.00 74 1002.5
20260902170543 58 267 3.0 8.0 0.00 0.00 0.00 74 1002.6
20260902170109 58 342 2.0 8.0 0.00 0.00 0.00 74 1002.6
20260902165543 58 326 3.0 7.0 0.00 0.00 0.00 74 1002.6
20260902165043 59 291 1.0 8.0 0.00 0.00 0.00 74 1002.6
20260902164559 59 5 1.0 8.0 0.00 0.00 0.00 73 1002.6
20260902164043 59 286 2.0 7.0 0.00 0.00 0.00 73 1002.5
20260902163544 59 258 2.0 7.0 0.00 0.00 0.00 73 1002.6
20260902163106 59 312 1.0 8.0 0.00 0.00 0.00 73 1002.6
20260902162544 60 350 2.0 8.0 0.00 0.00 0.00 73 1002.6
20260902162042 60 309 2.0 9.0 0.00 0.00 0.00 73 1002.6
20260902161605 60 320 3.0 9.0 0.00 0.00 0.00 74 1002.7
20260902161044 60 299 4.0 9.0 0.00 0.00 0.00 74 1002.6
20260902160543 60 295 3.0 9.0 0.00 0.00 0.00 73 1002.6
20260902160109 60 304 2.0 7.0 0.00 0.00 0.00 74 1002.6
20260902155543 60 341 3.0 7.0 0.00 0.00 0.00 73 1002.6
20260902155045 60 275 3.0 7.0 0.00 0.00 0.00 73 1002.7
20260902154604 60 40 2.0 8.0 0.00 0.00 0.00 73 1002.7
20260902154043 60 316 3.0 8.0 0.00 0.00 0.00 73 1002.7
20260902153546 60 317 3.0 8.0 0.00 0.00 0.00 72 1002.7
20260902153100 60 241 2.0 8.0 0.00 0.00 0.00 71 1002.7
20260902152542 60 352 2.0 8.0 0.00 0.00 0.00 72 1002.8
20260902152043 61 260 3.0 8.0 0.00 0.00 0.00 71 1002.8
20260902151613 61 274 3.0 10.0 0.00 0.00 0.00 70 1002.7
20260902151044 61 254 3.0 10.0 0.00 0.00 0.00 70 1002.8
20260902150543 62 265 3.0 10.0 0.00 0.00 0.00 70 1002.8
20260902145543 62 267 2.0 11.0 0.00 0.00 0.00 68 1003.0
20260902145044 62 269 3.0 11.0 0.00 0.00 0.00 67 1002.9
20260902144555 63 269 3.0 12.0 0.00 0.00 0.00 67 1002.8
20260902144043 63 293 5.0 12.0 0.00 0.00 0.00 68 1002.8
20260902143543 63 328 3.0 10.0 0.00 0.00 0.00 67 1002.9
20260902143110 63 352 4.0 11.0 0.00 0.00 0.00 67 1002.9
20260902142543 63 271 4.0 11.0 0.00 0.00 0.00 67 1002.9
20260902142047 64 318 4.0 10.0 0.00 0.00 0.00 67 1003.0
20260902141553 64 309 3.0 9.0 0.00 0.00 0.00 67 1003.1
20260902141044 64 283 4.0 9.0 0.00 0.00 0.00 66 1003.1
20260902140542 64 344 3.0 11.0 0.00 0.00 0.00 67 1003.0
20260902135543 64 308 4.0 10.0 0.00 0.00 0.00 66 1003.1
20260902135043 64 341 3.0 10.0 0.00 0.00 0.00 66 1003.2
20260902134602 64 338 4.0 9.0 0.00 0.00 0.00 67 1003.4
20260902134042 64 239 5.0 10.0 0.00 0.00 0.00 66 1003.2
20260902133543 65 313 3.0 10.0 0.00 0.00 0.00 67 1003.3
20260902133104 65 300 4.0 11.0 0.00 0.00 0.00 67 1003.2
20260902132542 65 5 4.0 11.0 0.00 0.00 0.00 67 1003.2
20260902132042 65 302 3.0 10.0 0.00 0.00 0.00 66 1003.1
20260902131607 65 241 4.0 11.0 0.00 0.00 0.00 67 1003.1
20260902131043 65 264 3.0 11.0 0.00 0.00 0.00 66 1003.1
20260902130543 65 316 2.0 11.0 0.00 0.00 0.00 65 1003.1
20260902130059 65 269 4.0 11.0 0.00 0.00 0.00 63 1003.1
20260902125547 65 317 3.0 10.0 0.00 0.00 0.00 63 1003.1